Orbital Elements at Epoch 2459200.5 (2020-Dec-17.0) TDB
Reference: JPL 25 (heliocentric ecliptic J2000)
Element | Value | Uncertainty (1-sigma) | Units |
e | .01753575966030125 | 5.327e-08 | |
a | 2.986339069736324 | 2.6877e-08 | au |
q | 2.93397134554526 | 1.722e-07 | au |
i | 9.59046724092998 | 3.8836e-06 | deg |
node | 84.69299689629626 | 3.239e-05 | deg |
peri | 331.3386167592546 | 0.00015021 | deg |
M | 327.7097590955337 | 0.00014423 | deg |
tp | 2459369.573633248875 (2021-Jun-04.07363325) | 0.00075436 | TDB |
period | 1884.981538219993 5.16 | 2.5447e-05 6.967e-08 | d yr |
n | .1909833028603302 | 2.5782e-09 | deg/d |
Q | 3.038706793927387 | 2.7348e-08 | au |
|
| | Orbit Determination Parameters
Additional Information
|